"Period start","avg(HW err(1)/warn(2) (#))","avg(Visibility (m))","avg(Weather code (#))","avg(Precip intensity (mm/h))","min(HW err(1)/warn(2) (#))","max(HW err(1)/warn(2) (#))","std(HW err(1)/warn(2) (#))","med(HW err(1)/warn(2) (#))","min(Visibility (m))","max(Visibility (m))","std(Visibility (m))","med(Visibility (m))","min(Weather code (#))","max(Weather code (#))","std(Weather code (#))","med(Weather code (#))","min(Precip intensity (mm/h))","max(Precip intensity (mm/h))","std(Precip intensity (mm/h))","med(Precip intensity (mm/h))"
2017-06-30 00:00:00,0,41677,0,0.00,0,0,0,0,32883,50000,7314,41315,0,0,0,0,0.00,0.00,0.00,0.00
2017-06-30 00:10:00,0,38541,0,0.00,0,0,0,0,27117,50000,8130,40412,0,0,0,0,0.00,0.00,0.00,0.00
2017-06-30 00:20:00,0,44199,0,0.00,0,0,0,0,37002,50000,4126,44311,0,0,0,0,0.00,0.00,0.00,0.00
2017-06-30 00:30:00,0,40495,0,0.00,0,0,0,0,29945,50000,6909,42138,0,0,0,0,0.00,0.00,0.00,0.00
2017-06-30 00:40:00,0,37007,0,0.00,0,0,0,0,25017,50000,6458,35914,0,0,0,0,0.00,0.00,0.00,0.00
2017-06-30 00:50:00,0,37563,0,0.00,0,0,0,0,26486,50000,8626,35394,0,0,0,0,0.00,0.00,0.00,0.00
2017-06-30 01:00:00,0,48039,0,0.00,0,0,0,0,42003,50000,2966,50000,0,0,0,0,0.00,0.00,0.00,0.00
2017-06-30 01:10:00,0,46687,0,0.00,0,0,0,0,40174,50000,3612,48496,0,0,0,0,0.00,0.00,0.00,0.00
2017-06-30 01:20:00,0,47860,0,0.00,0,0,0,0,43896,50000,1948,48042,0,0,0,0,0.00,0.00,0.00,0.00
2017-06-30 01:30:00,0,49067,0,0.00,0,1,0,0,46653,50000,1235,50000,0,0,0,0,0.00,0.00,0.00,0.00
2017-06-30 01:40:00,0,49976,0,0.00,0,0,0,0,49760,50000,72,50000,0,0,0,0,0.00,0.00,0.00,0.00
2017-06-30 01:50:00,0,48668,0,0.00,0,0,0,0,46340,50000,1638,50000,0,0,0,0,0.00,0.00,0.00,0.00
2017-06-30 02:00:00,0,48672,0,0.00,0,0,0,0,43982,50000,2026,49895,0,0,0,0,0.00,0.00,0.00,0.00
2017-06-30 02:10:00,0,49672,0,0.00,0,0,0,0,46725,50000,982,50000,0,0,0,0,0.00,0.00,0.00,0.00
2017-06-30 02:20:00,0,46022,0,0.00,0,0,0,0,39795,50000,3748,47870,0,0,0,0,0.00,0.00,0.00,0.00
2017-06-30 02:30:00,0,48338,0,0.00,0,0,0,0,43342,50000,2555,50000,0,0,0,0,0.00,0.00,0.00,0.00
2017-06-30 02:40:00,0,47638,0,0.00,0,0,0,0,40805,50000,2843,48667,0,0,0,0,0.00,0.00,0.00,0.00
2017-06-30 02:50:00,0,44281,0,0.00,0,0,0,0,36451,50000,4818,46210,0,0,0,0,0.00,0.00,0.00,0.00
2017-06-30 03:00:00,0,40203,0,0.00,0,0,0,0,27550,49551,6272,41334,0,0,0,0,0.00,0.00,0.00,0.00
2017-06-30 03:10:00,0,21478,56,4.22,0,0,0,0,8785,39398,8998,20624,52,61,4,52,0.25,9.90,3.97,1.93
2017-06-30 03:20:00,0,9212,62,13.76,0,0,0,0,7187,12462,1590,8818,61,62,0,62,2.50,27.70,8.19,13.30
2017-06-30 03:30:00,0,11088,62,19.08,0,0,0,0,8753,14692,1775,10712,61,63,1,62,1.95,55.60,17.70,12.30
2017-06-30 03:40:00,0,15145,61,6.85,0,0,0,0,11298,21115,3006,14701,61,62,0,61,1.30,21.75,6.45,4.28
"Period start","avg(HW err(1)/warn(2) (#))","avg(Visibility (m))","avg(Weather code (#))","avg(Precip intensity (mm/h))","min(HW err(1)/warn(2) (#))","max(HW err(1)/warn(2) (#))","std(HW err(1)/warn(2) (#))","med(HW err(1)/warn(2) (#))","min(Visibility (m))","max(Visibility (m))","std(Visibility (m))","med(Visibility (m))","min(Weather code (#))","max(Weather code (#))","std(Weather code (#))","med(Weather code (#))","min(Precip intensity (mm/h))","max(Precip intensity (mm/h))","std(Precip intensity (mm/h))","med(Precip intensity (mm/h))"
2017-06-30 08:10:00,0,48367,0,0.00,0,2,1,0,43650,50000,2556,50000,0,0,0,0,0.00,0.00,0.00,0.00
2017-06-30 08:20:00,0,49454,0,0.00,0,0,0,0,45934,50000,1210,50000,0,0,0,0,0.00,0.00,0.00,0.00
2017-06-30 08:30:00,0,48266,0,0.00,0,0,0,0,41983,50000,2626,49320,0,0,0,0,0.00,0.00,0.00,0.00
2017-06-30 08:40:00,0,41803,12,3.61,0,0,0,0,9178,50000,15942,50000,0,62,25,0,0.00,32.30,9.63,0.00
2017-06-30 08:50:00,0,16116,62,20.63,0,0,0,0,8270,30885,8650,11893,61,63,1,62,0.05,70.05,21.21,10.88
2017-06-30 09:00:00,0,47652,6,0.00,0,0,0,0,40934,50000,2937,48808,0,61,18,0,0.00,0.00,0.00,0.00
2017-06-30 09:10:00,0,49360,0,0.00,0,0,0,0,47997,50000,745,49720,0,0,0,0,0.00,0.00,0.00,0.00
2017-06-30 09:20:00,0,48107,0,0.00,0,0,0,0,42921,50000,2505,50000,0,0,0,0,0.00,0.00,0.00,0.00
2017-06-30 09:30:00,0,48209,0,0.00,0,0,0,0,38980,50000,3282,50000,0,0,0,0,0.00,0.00,0.00,0.00
2017-06-30 09:40:00,0,47417,0,0.00,0,0,0,0,40474,50000,3375,49308,0,0,0,0,0.00,0.00,0.00,0.00
2017-06-30 09:50:00,0,47455,0,0.00,0,0,0,0,41052,50000,2975,48089,0,0,0,0,0.00,0.00,0.00,0.00
2017-06-30 10:00:00,0,46077,0,0.00,0,0,0,0,38845,50000,4426,49038,0,0,0,0,0.00,0.00,0.00,0.00
2017-06-30 10:10:00,0,49062,0,0.00,0,0,0,0,44650,50000,1900,50000,0,0,0,0,0.00,0.00,0.00,0.00
2017-06-30 10:20:00,0,45309,0,0.00,0,0,0,0,29274,50000,7425,49160,0,0,0,0,0.00,0.00,0.00,0.00
2017-06-30 10:30:00,0,42050,0,0.00,0,0,0,0,27916,50000,6957,41994,0,0,0,0,0.00,0.00,0.00,0.00
2017-06-30 10:40:00,0,48311,0,0.00,0,0,0,0,40170,50000,3201,50000,0,0,0,0,0.00,0.00,0.00,0.00
2017-06-30 10:50:00,0,34579,0,0.00,0,0,0,0,18826,50000,12188,38216,0,0,0,0,0.00,0.00,0.00,0.00
2017-06-30 11:00:00,0,31862,0,0.00,0,0,0,0,24095,43241,6501,29652,0,0,0,0,0.00,0.00,0.00,0.00
2017-06-30 11:10:00,0,36563,0,0.00,0,0,0,0,22092,50000,10672,36004,0,0,0,0,0.00,0.00,0.00,0.00
2017-06-30 11:20:00,0,40972,0,0.00,0,0,0,0,32185,50000,6718,38953,0,0,0,0,0.00,0.00,0.00,0.00
2017-06-30 11:30:00,0,46708,0,0.00,0,0,0,0,42504,50000,2801,47077,0,0,0,0,0.00,0.00,0.00,0.00
2017-06-30 11:40:00,0,49132,0,0.00,0,0,0,0,45457,50000,1621,50000,0,0,0,0,0.00,0.00,0.00,0.00
2017-06-30 11:50:00,0,48020,0,0.00,0,0,0,0,45442,50000,1813,47927,0,0,0,0,0.00,0.00,0.00,0.00
2017-06-30 12:00:00,0,48731,0,0.00,0,0,0,0,42446,50000,2559,50000,0,0,0,0,0.00,0.00,0.00,0.00
2017-06-30 12:10:00,0,45670,0,0.00,0,0,0,0,30119,50000,6771,49884,0,0,0,0,0.00,0.00,0.00,0.00
2017-06-30 12:20:00,0,49376,0,0.00,0,0,0,0,44522,50000,1634,50000,0,0,0,0,0.00,0.00,0.00,0.00
2017-06-30 12:30:00,0,50000,0,0.00,0,0,0,0,50000,50000,0,50000,0,0,0,0,0.00,0.00,0.00,0.00
2017-06-30 12:40:00,0,49007,0,0.00,0,0,0,0,43052,50000,2175,50000,0,0,0,0,0.00,0.00,0.00,0.00
2017-06-30 12:50:00,0,42837,0,0.00,0,0,0,0,8809,50000,12746,50000,0,0,0,0,0.00,0.00,0.00,0.00
2017-06-30 13:00:00,0,50000,0,0.00,0,0,0,0,50000,50000,0,50000,0,0,0,0,0.00,0.00,0.00,0.00
2017-06-30 13:10:00,0,48496,0,0.00,0,0,0,0,40225,50000,3038,50000,0,0,0,0,0.00,0.00,0.00,0.00
2017-06-30 13:20:00,0,48137,0,0.00,0,0,0,0,38032,50000,3604,50000,0,0,0,0,0.00,0.00,0.00,0.00
2017-06-30 13:30:00,0,49791,0,0.00,0,0,0,0,48173,50000,545,50000,0,0,0,0,0.00,0.00,0.00,0.00
2017-06-30 13:40:00,0,49900,0,0.00,0,0,0,0,49005,50000,298,50000,0,0,0,0,0.00,0.00,0.00,0.00
2017-06-30 13:50:00,0,50000,0,0.00,0,0,0,0,50000,50000,0,50000,0,0,0,0,0.00,0.00,0.00,0.00
2017-06-30 14:00:00,0,50000,0,0.00,0,0,0,0,50000,50000,0,50000,0,0,0,0,0.00,0.00,0.00,0.00
2017-06-30 14:10:00,0,50000,0,0.00,0,0,0,0,50000,50000,0,50000,0,0,0,0,0.00,0.00,0.00,0.00
2017-06-30 14:20:00,0,50000,0,0.00,0,0,0,0,50000,50000,0,50000,0,0,0,0,0.00,0.00,0.00,0.00
2017-06-30 14:30:00,0,50000,0,0.00,0,0,0,0,50000,50000,0,50000,0,0,0,0,0.00,0.00,0.00,0.00
2017-06-30 14:40:00,0,50000,0,0.00,0,0,0,0,50000,50000,0,50000,0,0,0,0,0.00,0.00,0.00,0.00
2017-06-30 14:50:00,0,50000,0,0.00,0,0,0,0,50000,50000,0,50000,0,0,0,0,0.00,0.00,0.00,0.00
2017-06-30 15:00:00,0,50000,0,0.00,0,0,0,0,50000,50000,0,50000,0,0,0,0,0.00,0.00,0.00,0.00
2017-06-30 15:10:00,0,50000,0,0.00,0,0,0,0,50000,50000,0,50000,0,0,0,0,0.00,0.00,0.00,0.00
2017-06-30 15:20:00,0,50000,0,0.00,0,0,0,0,50000,50000,0,50000,0,0,0,0,0.00,0.00,0.00,0.00
2017-06-30 15:30:00,0,48079,12,0.14,0,0,0,0,31197,50000,5629,50000,0,61,24,0,0.00,1.40,0.42,0.00
2017-06-30 15:40:00,0,24166,62,9.29,0,0,0,0,11357,50000,13496,16890,61,62,0,62,2.05,20.55,5.38,10.43
